Wetterdaten: Samstag, 11.04.2026
Datum Zeit Außen Temp. Server Temp. +20m Feuchte Feuchte +20m Luftdruck Regen Wind Richtung Richtung Sonnenschein Helligkeit Solar Taupunkt
11.04.2026 00:00 3,7 °C 15,0 °C 3,6 °C 73 % 45 % 1018,9 hPa 0,00 l/m² 51,3 km/h (7 Bft) S-SW 195 ° 0 min 0 lux 0 W/m² -0,7 °C
11.04.2026 00:15 3,5 °C 14,9 °C 3,4 °C 74 % 45 % 1018,9 hPa 0,00 l/m² 51,3 km/h (7 Bft) S-SW 195 ° 0 min 0 lux 0 W/m² -0,7 °C
11.04.2026 00:30 3,3 °C 14,9 °C 3,3 °C 74 % 46 % 1018,9 hPa 0,00 l/m² 51,3 km/h (7 Bft) S-SW 195 ° 0 min 0 lux 0 W/m² -0,9 °C
11.04.2026 00:45 3,2 °C 14,8 °C 3,1 °C 74 % 47 % 1018,9 hPa 0,00 l/m² 51,3 km/h (7 Bft) S-SW 195 ° 0 min 0 lux 0 W/m² -1,0 °C
11.04.2026 01:00 3,0 °C 14,7 °C 3,0 °C 74 % 47 % 1019,0 hPa 0,00 l/m² 51,3 km/h (7 Bft) S-SW 195 ° 0 min 0 lux 0 W/m² -1,2 °C
11.04.2026 01:15 3,0 °C 14,7 °C 2,9 °C 75 % 47 % 1019,0 hPa 0,00 l/m² 51,3 km/h (7 Bft) S-SW 195 ° 0 min 0 lux 0 W/m² -1,0 °C
11.04.2026 01:30 2,9 °C 14,6 °C 2,7 °C 75 % 47 % 1019,0 hPa 0,00 l/m² 51,3 km/h (7 Bft) S-SW 195 ° 0 min 0 lux 0 W/m² -1,1 °C
11.04.2026 01:45 2,8 °C 14,5 °C 2,7 °C 75 % 47 % 1019,0 hPa 0,00 l/m² 51,3 km/h (7 Bft) S-SW 195 ° 0 min 0 lux 0 W/m² -1,2 °C
11.04.2026 02:00 2,8 °C 14,4 °C 2,6 °C 75 % 48 % 1019,0 hPa 0,00 l/m² 51,3 km/h (7 Bft) S-SW 195 ° 0 min 0 lux 0 W/m² -1,2 °C
11.04.2026 02:15 2,6 °C 14,2 °C 2,1 °C 75 % 49 % 1019,0 hPa 0,00 l/m² 51,3 km/h (7 Bft) S-SW 195 ° 0 min 0 lux 0 W/m² -1,4 °C
11.04.2026 02:30 2,3 °C 14,2 °C 1,9 °C 76 % 50 % 1019,0 hPa 0,00 l/m² 51,3 km/h (7 Bft) S-SW 195 ° 0 min 0 lux 0 W/m² -1,5 °C
11.04.2026 02:45 2,2 °C 14,1 °C 1,8 °C 76 % 50 % 1019,0 hPa 0,00 l/m² 51,3 km/h (7 Bft) S-SW 195 ° 0 min 0 lux 0 W/m² -1,6 °C
11.04.2026 03:00 2,0 °C 14,0 °C 1,6 °C 76 % 50 % 1019,1 hPa 0,00 l/m² 51,3 km/h (7 Bft) S-SW 195 ° 0 min 0 lux 0 W/m² -1,8 °C
11.04.2026 03:15 2,0 °C 14,0 °C 1,6 °C 77 % 51 % 1019,1 hPa 0,00 l/m² 51,3 km/h (7 Bft) S-SW 195 ° 0 min 0 lux 0 W/m² -1,6 °C
11.04.2026 03:30 1,7 °C 14,0 °C 1,3 °C 78 % 51 % 1019,1 hPa 0,00 l/m² 51,3 km/h (7 Bft) S-SW 195 ° 0 min 0 lux 0 W/m² -1,7 °C
11.04.2026 03:45 1,4 °C 13,9 °C 1,0 °C 78 % 53 % 1019,1 hPa 0,00 l/m² 51,3 km/h (7 Bft) S-SW 195 ° 0 min 0 lux 0 W/m² -2,0 °C
11.04.2026 04:00 1,3 °C 13,9 °C 0,6 °C 79 % 53 % 1019,1 hPa 0,00 l/m² 51,3 km/h (7 Bft) S-SW 195 ° 0 min 0 lux 0 W/m² -1,9 °C
11.04.2026 04:15 1,1 °C 13,8 °C 0,4 °C 80 % 54 % 1019,2 hPa 0,00 l/m² 51,3 km/h (7 Bft) S-SW 195 ° 0 min 0 lux 0 W/m² -2,0 °C
11.04.2026 04:30 1,0 °C 13,8 °C 0,7 °C 79 % 55 % 1019,2 hPa 0,00 l/m² 51,3 km/h (7 Bft) S-SW 195 ° 0 min 0 lux 0 W/m² -2,2 °C
11.04.2026 04:45 1,3 °C 13,7 °C 0,7 °C 80 % 55 % 1019,1 hPa 0,00 l/m² 51,3 km/h (7 Bft) S-SW 195 ° 0 min 0 lux 0 W/m² -1,8 °C
11.04.2026 05:00 1,2 °C 13,6 °C 0,8 °C 80 % 56 % 1019,2 hPa 0,00 l/m² 51,3 km/h (7 Bft) S-SW 195 ° 0 min 0 lux 0 W/m² -1,9 °C
11.04.2026 05:15 1,0 °C 13,5 °C 0,9 °C 80 % 56 % 1018,2 hPa 0,00 l/m² 51,3 km/h (7 Bft) S-SW 195 ° 0 min 0 lux 0 W/m² -2,1 °C
11.04.2026 05:30 1,2 °C 13,4 °C 0,8 °C 80 % 56 % 1018,1 hPa 0,00 l/m² 51,3 km/h (7 Bft) S-SW 195 ° 0 min 0 lux 0 W/m² -1,9 °C
11.04.2026 05:45 1,0 °C 13,4 °C 0,8 °C 80 % 57 % 1018,2 hPa 0,00 l/m² 51,3 km/h (7 Bft) S-SW 195 ° 0 min 0 lux 0 W/m² -2,1 °C
11.04.2026 06:00 1,2 °C 13,3 °C 1,4 °C 82 % 57 % 1018,1 hPa 0,00 l/m² 51,3 km/h (7 Bft) S-SW 195 ° 0 min 0 lux 0 W/m² -1,5 °C
11.04.2026 06:15 1,2 °C 13,2 °C 1,2 °C 82 % 58 % 1018,1 hPa 0,00 l/m² 51,3 km/h (7 Bft) S-SW 195 ° 0 min 37 lux 0 W/m² -1,5 °C
11.04.2026 06:30 1,6 °C 13,2 °C 1,5 °C 82 % 58 % 1018,1 hPa 0,00 l/m² 51,3 km/h (7 Bft) S-SW 195 ° 0 min 368 lux 0 W/m² -1,1 °C
11.04.2026 06:45 1,9 °C 13,0 °C 1,8 °C 82 % 58 % 1018,0 hPa 0,00 l/m² 51,3 km/h (7 Bft) S-SW 195 ° 0 min 1,17 klux 8 W/m² -0,8 °C
11.04.2026 07:00 2,0 °C 12,9 °C 2,5 °C 82 % 58 % 1018,0 hPa 0,00 l/m² 51,3 km/h (7 Bft) S-SW 195 ° 0 min 2,27 klux 15 W/m² -0,7 °C
11.04.2026 07:15 2,3 °C 12,9 °C 5,5 °C 82 % 58 % 1018,0 hPa 0,00 l/m² 51,3 km/h (7 Bft) S-SW 195 ° 0 min 6,47 klux 42 W/m² -0,4 °C
11.04.2026 07:30 3,5 °C 13,0 °C 7,3 °C 83 % 47 % 1017,9 hPa 0,00 l/m² 51,3 km/h (7 Bft) S-SW 195 ° 15 min 14,4 klux 94 W/m² 0,9 °C
11.04.2026 07:45 7,2 °C 13,0 °C 8,0 °C 83 % 42 % 1017,5 hPa 0,00 l/m² 51,3 km/h (7 Bft) S-SW 195 ° 15 min 16,6 klux 108 W/m² 4,5 °C
11.04.2026 08:00 10,5 °C 13,1 °C 9,4 °C 66 % 34 % 1017,1 hPa 0,00 l/m² 51,3 km/h (7 Bft) S-SW 195 ° 15 min 19,5 klux 127 W/m² 4,4 °C
11.04.2026 08:15 10,9 °C 13,3 °C 9,8 °C 56 % 29 % 1017,1 hPa 0,00 l/m² 51,3 km/h (7 Bft) S-SW 195 ° 0 min 21,2 klux 138 W/m² 2,5 °C
11.04.2026 08:30 8,5 °C 13,3 °C 10,6 °C 59 % 26 % 1017,3 hPa 0,00 l/m² 51,3 km/h (7 Bft) S-SW 195 ° 15 min 27,3 klux 178 W/m² 1,0 °C
11.04.2026 08:45 8,5 °C 13,3 °C 9,6 °C 59 % 30 % 1017,3 hPa 0,00 l/m² 51,3 km/h (7 Bft) S-SW 195 ° 15 min 29,9 klux 195 W/m² 1,0 °C
11.04.2026 09:00 8,8 °C 13,4 °C 9,4 °C 58 % 31 % 1017,3 hPa 0,00 l/m² 51,3 km/h (7 Bft) S-SW 195 ° 15 min 33,7 klux 220 W/m² 1,0 °C
11.04.2026 09:15 9,2 °C 13,4 °C 9,6 °C 57 % 31 % 1017,2 hPa 0,00 l/m² 51,3 km/h (7 Bft) S-SW 195 ° 15 min 36,2 klux 236 W/m² 1,1 °C
11.04.2026 09:30 9,4 °C 13,6 °C 9,8 °C 56 % 30 % 1017,2 hPa 0,00 l/m² 51,3 km/h (7 Bft) S-SW 195 ° 15 min 39,4 klux 257 W/m² 1,1 °C
11.04.2026 09:45 9,7 °C 13,8 °C 10,2 °C 54 % 28 % 1017,2 hPa 0,00 l/m² 51,3 km/h (7 Bft) S-SW 195 ° 15 min 42,4 klux 276 W/m² 0,9 °C
11.04.2026 10:00 10,0 °C 13,9 °C 10,4 °C 51 % 25 % 1017,2 hPa 0,00 l/m² 51,3 km/h (7 Bft) S-SW 195 ° 15 min 45,8 klux 298 W/m² 0,3 °C
11.04.2026 10:15 10,5 °C 14,1 °C 10,9 °C 50 % 23 % 1017,1 hPa 0,00 l/m² 51,3 km/h (7 Bft) S-SW 195 ° 15 min 47,8 klux 311 W/m² 0,5 °C
11.04.2026 10:30 10,6 °C 14,3 °C 11,2 °C 49 % 21 % 1017,1 hPa 0,00 l/m² 51,3 km/h (7 Bft) S-SW 195 ° 15 min 49,4 klux 322 W/m² 0,3 °C
11.04.2026 10:45 11,0 °C 14,5 °C 11,8 °C 50 % 22 % 1017,0 hPa 0,00 l/m² 51,3 km/h (7 Bft) S-SW 195 ° 15 min 52,7 klux 343 W/m² 1,0 °C
11.04.2026 11:00 11,4 °C 14,6 °C 12,0 °C 47 % 15 % 1016,0 hPa 0,00 l/m² 51,3 km/h (7 Bft) S-SW 195 ° 15 min 54,9 klux 358 W/m² 0,5 °C
11.04.2026 11:15 11,6 °C 14,9 °C 12,2 °C 47 % 15 % 1015,9 hPa 0,00 l/m² 51,3 km/h (7 Bft) S-SW 195 ° 15 min 56,7 klux 369 W/m² 0,7 °C
11.04.2026 11:30 11,9 °C 15,1 °C 12,5 °C 46 % 15 % 1015,9 hPa 0,00 l/m² 51,3 km/h (7 Bft) S-SW 195 ° 15 min 57,6 klux 375 W/m² 0,7 °C
11.04.2026 11:45 12,3 °C 15,3 °C 13,0 °C 45 % 15 % 1015,9 hPa 0,00 l/m² 51,3 km/h (7 Bft) S-SW 195 ° 15 min 57,4 klux 374 W/m² 0,7 °C
11.04.2026 12:00 12,7 °C 15,5 °C 13,5 °C 44 % 15 % 1015,8 hPa 0,00 l/m² 51,3 km/h (7 Bft) S-SW 195 ° 15 min 61,1 klux 398 W/m² 0,8 °C
11.04.2026 12:15 12,4 °C 15,5 °C 13,4 °C 46 % 15 % 1015,9 hPa 0,00 l/m² 51,3 km/h (7 Bft) S-SW 195 ° 15 min 61,5 klux 401 W/m² 1,1 °C
11.04.2026 12:30 12,9 °C 15,6 °C 13,7 °C 44 % 15 % 1015,8 hPa 0,00 l/m² 51,3 km/h (7 Bft) S-SW 195 ° 0 min 58,8 klux 383 W/m² 1,0 °C
11.04.2026 12:45 13,3 °C 15,7 °C 14,0 °C 43 % 15 % 1014,7 hPa 0,00 l/m² 51,3 km/h (7 Bft) S-SW 195 ° 15 min 64,0 klux 417 W/m² 1,0 °C
11.04.2026 13:00 13,4 °C 15,8 °C 14,3 °C 41 % 15 % 1014,7 hPa 0,00 l/m² 51,3 km/h (7 Bft) S-SW 195 ° 15 min 65,2 klux 425 W/m² 0,4 °C
11.04.2026 13:15 13,9 °C 15,9 °C 14,7 °C 40 % 15 % 1014,7 hPa 0,00 l/m² 51,3 km/h (7 Bft) S-SW 195 ° 0 min 56,5 klux 368 W/m² 0,5 °C
11.04.2026 13:30 13,9 °C 16,0 °C 14,9 °C 41 % 15 % 1014,7 hPa 0,00 l/m² 51,3 km/h (7 Bft) S-SW 195 ° 0 min 44,1 klux 287 W/m² 0,9 °C
11.04.2026 13:45 14,1 °C 16,0 °C 15,1 °C 40 % 15 % 1014,7 hPa 0,00 l/m² 51,3 km/h (7 Bft) S-SW 195 ° 15 min 67,2 klux 438 W/m² 0,7 °C
11.04.2026 14:00 14,3 °C 16,1 °C 15,1 °C 38 % 15 % 1014,6 hPa 0,00 l/m² 51,3 km/h (7 Bft) S-SW 195 ° 0 min 57,3 klux 373 W/m² 0,2 °C
11.04.2026 14:15 13,9 °C 16,3 °C 14,7 °C 39 % 15 % 1014,7 hPa 0,00 l/m² 51,3 km/h (7 Bft) S-SW 195 ° 15 min 70,2 klux 457 W/m² 0,2 °C
11.04.2026 14:30 14,6 °C 16,4 °C 15,3 °C 36 % 15 % 1013,6 hPa 0,00 l/m² 51,3 km/h (7 Bft) S-SW 195 ° 15 min 71,9 klux 468 W/m² -0,3 °C
11.04.2026 14:45 14,7 °C 16,5 °C 15,4 °C 34 % 15 % 1013,6 hPa 0,00 l/m² 51,3 km/h (7 Bft) S-SW 195 ° 15 min 70,4 klux 459 W/m² -1,0 °C
11.04.2026 15:00 14,8 °C 16,5 °C 15,4 °C 35 % 15 % 1013,6 hPa 0,00 l/m² 51,3 km/h (7 Bft) S-SW 195 ° 15 min 64,8 klux 422 W/m² -0,5 °C
11.04.2026 15:15 14,9 °C 16,8 °C 15,3 °C 33 % 15 % 1013,5 hPa 0,00 l/m² 51,3 km/h (7 Bft) S-SW 195 ° 15 min 59,7 klux 389 W/m² -1,2 °C
11.04.2026 15:30 15,0 °C 17,0 °C 15,3 °C 34 % 15 % 1013,5 hPa 0,00 l/m² 51,3 km/h (7 Bft) S-SW 195 ° 15 min 54,2 klux 353 W/m² -0,7 °C
11.04.2026 15:45 15,1 °C 17,1 °C 16,0 °C 33 % 15 % 1013,5 hPa 0,00 l/m² 51,3 km/h (7 Bft) S-SW 195 ° 15 min 51,4 klux 335 W/m² -1,0 °C
11.04.2026 16:00 15,1 °C 17,2 °C 15,7 °C 35 % 15 % 1012,5 hPa 0,00 l/m² 51,3 km/h (7 Bft) S-SW 195 ° 15 min 50,2 klux 327 W/m² -0,2 °C
11.04.2026 16:15 15,2 °C 17,3 °C 16,4 °C 35 % 15 % 1012,5 hPa 0,00 l/m² 51,3 km/h (7 Bft) S-SW 195 ° 15 min 62,7 klux 408 W/m² -0,2 °C
11.04.2026 16:30 15,8 °C 17,3 °C 16,7 °C 34 % 15 % 1012,4 hPa 0,00 l/m² 51,3 km/h (7 Bft) S-SW 195 ° 15 min 65,2 klux 425 W/m² -0,0 °C
11.04.2026 16:45 15,4 °C 17,5 °C 16,2 °C 33 % 15 % 1012,5 hPa 0,00 l/m² 51,3 km/h (7 Bft) S-SW 195 ° 15 min 54,8 klux 357 W/m² -0,8 °C
11.04.2026 17:00 15,1 °C 17,7 °C 15,7 °C 36 % 15 % 1012,5 hPa 0,00 l/m² 51,3 km/h (7 Bft) S-SW 195 ° 15 min 49,9 klux 325 W/m² 0,1 °C
11.04.2026 17:15 15,3 °C 17,8 °C 15,9 °C 36 % 15 % 1012,5 hPa 0,00 l/m² 51,3 km/h (7 Bft) S-SW 195 ° 15 min 46,5 klux 303 W/m² 0,3 °C
11.04.2026 17:30 15,0 °C 18,0 °C 15,6 °C 36 % 15 % 1011,5 hPa 0,00 l/m² 51,3 km/h (7 Bft) S-SW 195 ° 15 min 45,4 klux 296 W/m² 0,1 °C
11.04.2026 17:45 14,6 °C 18,0 °C 15,0 °C 37 % 15 % 1011,5 hPa 0,00 l/m² 51,3 km/h (7 Bft) S-SW 195 ° 15 min 41,0 klux 267 W/m² 0,1 °C
11.04.2026 18:00 14,4 °C 18,1 °C 15,0 °C 38 % 15 % 1011,5 hPa 0,00 l/m² 51,3 km/h (7 Bft) S-SW 195 ° 15 min 31,9 klux 208 W/m² 0,3 °C
11.04.2026 18:15 14,3 °C 18,1 °C 14,8 °C 38 % 15 % 1011,5 hPa 0,00 l/m² 51,3 km/h (7 Bft) S-SW 195 ° 15 min 25,9 klux 169 W/m² 0,2 °C
11.04.2026 18:30 14,2 °C 18,1 °C 14,8 °C 38 % 15 % 1011,6 hPa 0,00 l/m² 51,3 km/h (7 Bft) S-SW 195 ° 15 min 30,3 klux 197 W/m² 0,1 °C
11.04.2026 18:45 14,3 °C 18,1 °C 14,9 °C 39 % 15 % 1011,5 hPa 0,00 l/m² 51,3 km/h (7 Bft) S-SW 195 ° 15 min 29,2 klux 190 W/m² 0,5 °C
11.04.2026 19:00 14,1 °C 18,1 °C 14,6 °C 39 % 15 % 1011,6 hPa 0,00 l/m² 51,3 km/h (7 Bft) S-SW 195 ° 15 min 25,8 klux 168 W/m² 0,4 °C
11.04.2026 19:15 13,8 °C 18,2 °C 14,7 °C 39 % 15 % 1011,6 hPa 0,00 l/m² 51,3 km/h (7 Bft) S-SW 195 ° 15 min 22,3 klux 145 W/m² 0,1 °C
11.04.2026 19:30 13,3 °C 18,2 °C 14,4 °C 40 % 15 % 1010,6 hPa 0,00 l/m² 51,3 km/h (7 Bft) S-SW 195 ° 15 min 12,8 klux 83 W/m² -0,0 °C
11.04.2026 19:45 12,6 °C 18,1 °C 13,0 °C 42 % 15 % 1010,7 hPa 0,00 l/m² 51,3 km/h (7 Bft) S-SW 195 ° 0 min 3,97 klux 26 W/m² 0,0 °C
11.04.2026 20:00 12,2 °C 18,0 °C 12,4 °C 43 % 15 % 1010,7 hPa 0,00 l/m² 51,3 km/h (7 Bft) S-SW 195 ° 0 min 1,81 klux 12 W/m² -0,0 °C
11.04.2026 20:15 11,9 °C 17,8 °C 12,0 °C 44 % 15 % 1010,8 hPa 0,00 l/m² 51,3 km/h (7 Bft) S-SW 195 ° 0 min 808 lux 0 W/m² 0,0 °C
11.04.2026 20:30 11,5 °C 17,7 °C 11,6 °C 45 % 15 % 1011,8 hPa 0,00 l/m² 51,3 km/h (7 Bft) S-SW 195 ° 0 min 177 lux 0 W/m² -0,0 °C
11.04.2026 20:45 11,4 °C 17,5 °C 11,6 °C 46 % 15 % 1011,8 hPa 0,00 l/m² 51,3 km/h (7 Bft) S-SW 195 ° 0 min 20 lux 0 W/m² 0,2 °C
11.04.2026 21:00 11,4 °C 17,3 °C 11,7 °C 46 % 15 % 1011,8 hPa 0,00 l/m² 51,3 km/h (7 Bft) S-SW 195 ° 0 min 1 lux 0 W/m² 0,2 °C
11.04.2026 21:15 11,3 °C 17,2 °C 11,4 °C 46 % 15 % 1011,9 hPa 0,00 l/m² 51,3 km/h (7 Bft) S-SW 195 ° 0 min 0 lux 0 W/m² 0,1 °C
11.04.2026 21:30 11,3 °C 17,0 °C 11,4 °C 46 % 15 % 1011,9 hPa 0,00 l/m² 51,3 km/h (7 Bft) S-SW 195 ° 0 min 0 lux 0 W/m² 0,1 °C
11.04.2026 21:45 11,0 °C 16,9 °C 11,2 °C 47 % 15 % 1011,9 hPa 0,00 l/m² 51,3 km/h (7 Bft) S-SW 195 ° 0 min 0 lux 0 W/m² 0,1 °C
11.04.2026 22:00 10,9 °C 16,9 °C 11,2 °C 47 % 15 % 1011,9 hPa 0,00 l/m² 51,3 km/h (7 Bft) S-SW 195 ° 0 min 0 lux 0 W/m² 0,0 °C
11.04.2026 22:15 11,0 °C 16,7 °C 11,4 °C 47 % 15 % 1011,9 hPa 0,00 l/m² 51,3 km/h (7 Bft) S-SW 195 ° 0 min 0 lux 0 W/m² 0,1 °C
11.04.2026 22:30 11,1 °C 16,7 °C 11,4 °C 47 % 15 % 1011,9 hPa 0,00 l/m² 51,3 km/h (7 Bft) S-SW 195 ° 0 min 0 lux 0 W/m² 0,2 °C
11.04.2026 22:45 11,2 °C 16,6 °C 11,5 °C 47 % 15 % 1011,9 hPa 0,00 l/m² 51,3 km/h (7 Bft) S-SW 195 ° 0 min 0 lux 0 W/m² 0,3 °C
11.04.2026 23:00 11,3 °C 16,5 °C 11,7 °C 47 % 15 % 1010,8 hPa 0,00 l/m² 51,3 km/h (7 Bft) S-SW 195 ° 0 min 0 lux 0 W/m² 0,4 °C
11.04.2026 23:15 11,3 °C 16,5 °C 11,7 °C 47 % 15 % 1010,8 hPa 0,00 l/m² 51,3 km/h (7 Bft) S-SW 195 ° 0 min 0 lux 0 W/m² 0,4 °C
11.04.2026 23:30 11,4 °C 16,5 °C 11,9 °C 46 % 15 % 1010,8 hPa 0,00 l/m² 51,3 km/h (7 Bft) S-SW 195 ° 0 min 0 lux 0 W/m² 0,2 °C
11.04.2026 23:45 11,6 °C 16,4 °C 12,0 °C 46 % 15 % 1010,8 hPa 0,00 l/m² 51,3 km/h (7 Bft) S-SW 195 ° 0 min 0 lux 0 W/m² 0,4 °C
_ Min-Zeit 04:30 07:00 04:15 15:15 11:00 19:30 - 00:00 - - - - - 04:30
Minimum _ 1,0 °C 12,9 °C 0,4 °C 33 % 15 % 1010,6 hPa - 51,3 km/h (7 Bft) - - - - - -2,2 °C
_ Max-Zeit 16:30 19:15 16:30 07:30 06:15 04:30 00:00 00:00 - - 07:30 14:30 14:30 07:45
Maximum _ 15,8 °C 18,2 °C 16,7 °C 83 % 58 % 1019,2 hPa 0,00 l/m² 51,3 km/h
S-SW (7 Bft)
- - 15 min 71,9 klux 468 W/m² 4,5 °C
Durchschnitt _ 9,1 °C 15,5 °C 9,5 °C 55 % 29 % 1015,3 hPa #0,00 l/m² 51,3 km/h (7 Bft) S-SW - #11:00 h 23,9 klux 276 W/m² -0,1 °C